Flag for Guernsey Weather past 2 weeks in St. Peter Port, Guernsey

Now
41 °F

Clear.


Feels Like: 41 °F
Forecast: 40 / 49 °F
Wind: 2 mph from Northwest

Location: Guernsey Airport

Current Time: Mar 5, 2015 at 5:05:00 AM

Latest Report: Mar 5, 2015 at 4:20 AM


Visibility: 10 mi

Pressure: 30.74 "Hg

Humidity: 81%

Dew point: 36 °F

Location of St. Peter PortLocation

Historic Weather in St. Peter Port — Graph

°F

St. Peter Port temperature yesterday

Maximum temperature yesterday: 48 °F (at 1:50 PM)
Minimum temperature yesterday: 41 °F (at 7:50 AM)
Average temperature yesterday: 45 °F

Past Weeks' High & Low Weather Summary

 TemperatureHumidityPressure
High52 °F (Feb 25, 1:20 PM)100% (Feb 19, 3:20 PM)30.77 "Hg (Feb 19, 3:20 PM)
Low37 °F (Feb 22, 4:20 AM)57% (Mar 2, 12:20 PM)29.42 "Hg (Feb 23, 4:20 AM)
Average46 °F85%29.97 "Hg
* Reported Feb 17 8:20 PM — Mar 4 8:50 PM, St. Peter Port, Weather by CustomWeather, © 2015

Note: Actual official high and low records may vary slightly from our data, if they occured in-between our weather recording intervals... More about our weather records

Advertising

St. Peter Port weather history for previous 24 hours

 ConditionsComfort  
Time TempWeatherWind HumidityBarometerVisibility
8:50 PM
Wed, Mar 4
43 °FPassing clouds.10 mph66%30.69 "HgN/A
8:20 PM43 °FPassing clouds.9 mph71%30.69 "HgN/A
7:50 PM43 °FPassing clouds.7 mph71%30.69 "HgN/A
7:20 PM43 °FPassing clouds.8 mph71%30.66 "HgN/A
6:50 PM45 °FPassing clouds.9 mph66%30.66 "HgN/A
6:20 PM43 °FPassing clouds.8 mph71%30.66 "HgN/A
5:50 PM43 °FPassing clouds.7 mph76%30.63 "HgN/A
5:20 PM45 °FPassing clouds.8 mph71%30.63 "HgN/A
4:50 PM46 °FPassing clouds.13 mph66%30.60 "HgN/A
4:20 PM46 °FPassing clouds.12 mph66%30.60 "HgN/A
3:50 PM46 °FPassing clouds.14 mph66%30.60 "HgN/A
3:20 PM46 °FPassing clouds.12 mph66%30.60 "HgN/A
2:50 PM46 °FPassing clouds.10 mph66%30.57 "HgN/A
2:20 PM48 °FPassing clouds.14 mph66%30.57 "HgN/A
1:50 PM48 °FPassing clouds.14 mph62%30.57 "HgN/A
1:20 PM46 °FPassing clouds.16 mph66%30.57 "HgN/A
12:50 PM46 °FPassing clouds.15 mph71%30.54 "HgN/A
12:20 PM46 °FPassing clouds.18 mph71%30.54 "HgN/A
11:50 AM46 °FPassing clouds.17 mph71%30.54 "HgN/A
11:20 AM46 °FPassing clouds.17 mph66%30.54 "HgN/A
10:50 AM46 °FPassing clouds.15 mph66%30.51 "HgN/A
10:20 AM46 °FPassing clouds.17 mph66%30.51 "HgN/A
9:50 AM45 °FPassing clouds.17 mph71%30.51 "HgN/A
9:20 AM45 °FScattered clouds.17 mph71%30.48 "HgN/A
8:50 AM45 °FPassing clouds.15 mph71%30.48 "HgN/A
8:20 AM43 °FPassing clouds.17 mph76%30.45 "HgN/A
7:50 AM41 °FScattered showers. Scattered clouds.15 mph87%30.42 "HgN/A
7:20 AM43 °FScattered clouds.17 mph71%30.42 "HgN/A
6:50 AM43 °FPassing clouds.14 mph71%30.42 "HgN/A
6:20 AM43 °FPassing clouds.15 mph76%30.39 "HgN/A
5:50 AM43 °FPassing clouds.16 mph76%30.39 "HgN/A
5:20 AM43 °FPassing clouds.20 mph76%30.39 "HgN/A
Weather by CustomWeather, © 2015

See weather overviewHow to use our weather pages